Location: College Park
(38.9810°N, 76.9370°W)
Time: 05:19:51

N. Korean satellite - Pass Details

Date: 12 March 2018
Orbit: 460 x 512 km, 97.2° (Epoch: 22 March)

Event Time Altitude Azimuth Distance (km) Brightness Sun altitude
Rises 20:01:41 0° 209° (SSW) 2,524 10.5 -10.5°
Reaches altitude 10° 20:04:37 10° 237° (WSW) 1,664 10.1 -11.1°
Maximum altitude 20:06:27 14° 268° (W) 1,469 10.4 -11.4°
Drops below altitude 10° 20:08:19 10° 299° (WNW) 1,687 10.5 -11.8°
Sets 20:11:19 0° 327° (NNW) 2,588 10.9 -12.4°
